User: anonymous   Login
Location: Unspecified
(0.0000°N, 0.0000°E)
Time: 03:53:41
(UTC+00:00)
Language:

CORVUS BC2 - Orbit

View from above orbital plane
View from above orbital plane
View from above satellite
View from above satellite

Ground track
Ground track

The orbit data is extracted from the following two-line orbital elements,

1 42846U 17042X   17230.21762763  .00000319  00000-0  37094-4 0  9995
2 42846  97.6111 138.7217 0010978 120.3736 239.8569 14.91631055  5201
Epoch (UTC): 18 August 2017 05:13:23
Eccentricity: 0.0010978
inclination: 97.6111°
perigee height: 585 km
apogee height: 600 km
right ascension of ascending node: 138.7217°
argument of perigee: 120.3736°
revolutions per day: 14.91631055
mean anomaly at epoch: 239.8569°
orbit number at epoch: 520

The dashed part of the orbit path shows where the satellite is in the earth's shadow,  

DLR